COSMOS 2251 DEB, 34003

Orbit data source: Space-Track

COSMOS 2251 DEB, 34003 is space debris in LEO originally from a launch on Wed, 16 Jun 1993 UTC launched from the Plesetsk Missile And Space Complex (PKMTR). The debris from Iridium 33, an American commercial communications satellite, has been tracked extensively since its accidental collision with the defunct Russian satellite Cosmos 2251 in 2009. This event, occurring at high speed in low Earth orbit (LEO), generated thousands of pieces of space debris, significantly increasing the risk of further collisions. The Iridium 33 debris cloud has impacted space traffic management and orbital debris mitigation strategies, making it a subject of ongoing study in space situational awareness.

Loading next visibility...
Identifier
34003, 1993-036GN
Orbit
LEO
Country
Flag of CISCIS
Related business
Manufacturer
Unknown
Mission
Spacecraft
Bus & Motor
Unknown
Mass
Unknown
Launch date (UTC)
1993-06-16 (33 years ago)
Launch vehicle
Unknown
Launch site
Plesetsk Missile And Space Complex (PKMTR)
Object type
Payload
Rocket body
Debris
Shape & HBR
Unknown shape, 0.1 m
Radar Cross Section
Medium (>0.1 m² and <1 m²)

Expand to show TLE details & history
Last TLE update: 1 day ago

TLE from 1 day ago
0 COSMOS 2251 DEB
1 34003U 93036GN  26207.14158707  .00000863  00000-0  58044-3 0  9992
2 34003  74.0754 265.3940 0278199 325.1539  33.1639 13.85017587875451
Epoch: 2026-07-26T03:23Z
TLE epoch observation values (Epoch: 2026-07-26T03:23:53.122Z)
Latitude
-0.00007°
Longitude
-89.42113°
Altitude
779.86 km
Speed
7.55 km/s
True Right ascension
17h 41m 34s
True Declination
0° 00' 00"
Sunlit
Object was in full shadow at epoch
Visualization orbit readout
Latitude
Unknown
Longitude
Unknown
Altitude
Unknown
Speed
Unknown
Apparent Right ascension
Unknown
Apparent Declination
Unknown
Sunlit
N/A
Visualization observer readout
Local Sidereal Time
17:43:24
Azimuth
Unknown
Elevation
Unknown
Doppler factor
Unknown
Orbital elements
Apogee altitude
1,147.515 km
Perigee altitude
740.122 km
Semi-major axis
7,321.956 km
Eccentricity
0.02782
Inclination
74.0754°
RAAN
265.394°
Arg. of periapsis
325.1539°
True anomaly
34.95974°
Mean anomaly
33.1639°
Eccentric anomaly
34.05654°
Mean motion
3.4642 °/min
Orbital period
103.92 mins
BSTAR
0.00058044
Loading maneuver chart data...
Computing Atmospheric mass density...

Documentation

Showing up to 5 results
|